CW3224 Weather Reports


time (UTC)temp
F
wind
direction
speed
knots
gust
knots
rain 1hr
in
rain 24hr
in
rain mn
in
humidity
%
barometer
mb
20260901112039 65 185 0.0 0.0 0.01 0.02 0.02 90 1017.0
20260901110559 65 185 0.0 0.0 0.01 0.02 0.02 90 1017.0
20260901110036 65 185 0.0 0.0 0.01 0.02 0.02 90 1016.9
20260901104600 65 185 0.0 0.0 0.02 0.02 0.02 90 1016.9
20260901103559 65 185 0.0 0.0 0.02 0.02 0.02 90 1016.5
20260901103039 65 185 0.0 0.0 0.01 0.01 0.01 89 1016.5
20260901101601 65 185 0.0 0.0 0.01 0.01 0.01 89 1016.5
20260901101040 65 185 0.0 0.0 0.01 0.01 0.01 88 1016.5
20260901095555 65 185 0.0 0.0 0.01 0.01 0.01 88 1016.5
20260901094556 66 185 0.0 0.0 0.00 0.00 0.00 87 1016.5
20260901093557 66 185 0.0 0.0 0.00 0.00 0.00 87 1016.5
20260901093030 66 185 0.0 2.6 0.00 0.00 0.00 85 1016.5
20260901091552 66 179 0.0 2.6 0.00 0.00 0.00 84 1016.5
20260901090551 66 180 0.0 0.0 0.00 0.00 0.00 84 1016.4
20260901085549 66 181 0.0 0.0 0.00 0.00 0.00 84 1016.4
20260901084549 66 181 0.0 0.0 0.00 0.00 0.00 84 1016.4
20260901083548 66 181 0.0 1.7 0.00 0.00 0.00 84 1016.3
20260901083042 66 181 0.0 2.6 0.00 0.00 0.00 84 1016.4
20260901081546 66 183 0.0 0.0 0.00 0.00 0.00 84 1016.4
20260901080548 66 183 0.0 0.0 0.00 0.00 0.00 84 1016.4
20260901075538 66 184 0.0 3.5 0.00 0.00 0.00 84 1016.5
20260901074540 66 189 0.0 0.0 0.00 0.00 0.00 84 1016.5
20260901073540 66 189 0.0 0.0 0.00 0.00 0.00 84 1016.7
20260901072539 67 189 0.0 0.0 0.00 0.00 0.00 84 1016.8
20260901072020 67 189 0.0 0.0 0.00 0.00 0.00 84 1016.8
20260901070537 67 189 0.0 0.0 0.00 0.00 0.00 84 1017.0
20260901070026 67 189 0.0 0.0 0.00 0.00 0.00 84 1017.0
20260901064536 67 189 0.0 0.0 0.00 0.00 0.00 84 1017.0
20260901063537 67 189 0.0 0.0 0.00 0.00 0.00 84 1017.0
20260901062537 67 189 0.0 0.0 0.00 0.00 0.00 84 1017.0
20260901061538 67 189 0.0 0.0 0.00 0.00 0.00 85 1017.0
20260901060537 67 189 0.0 0.0 0.00 0.00 0.00 85 1017.2
20260901055537 67 189 0.0 0.0 0.00 0.00 0.00 85 1017.2
20260901054536 67 189 0.0 0.0 0.00 0.00 0.00 85 1017.2
20260901054022 67 189 0.0 0.0 0.00 0.00 0.00 85 1017.2
20260901052537 67 188 0.0 0.0 0.00 0.00 0.00 85 1017.2
20260901051535 67 188 0.0 0.0 0.00 0.00 0.00 85 1017.2
20260901050536 67 188 0.0 0.0 0.00 0.00 0.00 85 1017.0
20260901045535 67 188 0.0 0.0 0.00 0.00 0.00 84 1017.0
20260901044535 67 188 0.0 0.0 0.00 0.00 0.00 85 1017.0
20260901044022 67 200 0.0 0.0 0.00 0.00 0.00 84 1017.0
20260901042536 67 208 0.0 0.0 0.00 0.00 0.00 84 1017.2
20260901041525 66 200 0.0 0.0 0.00 0.00 0.00 84 1017.2
20260901040525 66 200 0.0 0.0 0.00 0.00 0.00 83 1017.0
20260901035522 66 200 0.0 0.0 0.00 0.00 0.00 83 1017.2
20260901034522 66 200 0.0 0.0 0.00 0.00 0.00 84 1017.2
20260901033523 66 200 0.0 0.0 0.00 0.00 0.00 84 1017.3
20260901032522 66 200 0.0 0.0 0.00 0.00 0.00 84 1017.4
20260901031523 66 200 0.0 0.0 0.00 0.00 0.00 84 1017.4
20260901030520 66 200 0.0 0.0 0.00 0.00 0.00 84 1017.2
20260901025521 66 252 0.0 0.0 0.00 0.00 0.00 84 1017.0
20260901024519 66 252 0.0 0.0 0.00 0.00 0.00 85 1017.0
20260901023520 66 252 0.0 0.0 0.00 0.00 0.00 85 1017.2
20260901022519 66 252 0.0 0.0 0.00 0.00 0.00 84 1017.0
20260901021522 66 252 0.0 0.0 0.00 0.00 0.00 84 1017.0
20260901020511 66 252 0.0 0.0 0.00 0.00 0.00 83 1017.0
20260901015510 67 252 0.0 0.0 0.00 0.00 0.00 83 1017.0
20260901014510 67 252 0.0 0.0 0.00 0.00 0.00 82 1017.0
20260901013510 67 252 0.0 0.0 0.00 0.00 0.00 82 1017.3
20260901012509 67 252 0.0 0.0 0.00 0.00 0.00 82 1017.5
20260901011511 67 252 0.0 0.0 0.00 0.00 0.00 81 1017.5
20260901010505 68 252 0.0 0.0 0.00 0.00 0.00 81 1017.5
20260901005504 68 252 0.0 0.0 0.00 0.00 0.00 81 1017.3
20260901004503 68 252 0.0 0.0 0.00 0.00 0.00 80 1017.3
20260901003505 69 252 0.0 0.0 0.00 0.00 0.00 79 1017.2
20260901002504 69 252 0.0 0.0 0.00 0.00 0.00 78 1017.0
20260901001505 69 252 0.0 0.0 0.00 0.00 0.00 77 1017.0
20260901000458 70 252 0.0 0.0 0.00 0.00 0.00 76 1017.0
20260831235454 70 252 0.0 0.0 0.00 0.00 0.00 76 1017.0
20260831234453 71 252 0.0 0.0 0.00 0.00 0.00 76 1017.0
20260831233928 71 252 0.0 0.0 0.00 0.00 0.00 74 1017.3
20260831232939 72 252 0.0 0.0 0.00 0.00 0.00 73 1017.4
20260831231452 72 252 0.0 0.0 0.00 0.00 0.00 72 1017.6
20260831230453 73 252 0.0 0.0 0.00 0.00 0.00 70 1017.6
20260831225452 73 252 0.0 0.0 0.00 0.00 0.00 69 1017.7
20260831224931 73 252 0.0 0.0 0.00 0.00 0.00 67 1017.7
20260831223450 74 252 0.0 0.0 0.00 0.00 0.00 66 1017.7
20260831223420 74 173 0.0 0.0 0.00 0.00 0.00 66 1017.7
20260831221438 74 206 0.0 2.6 0.00 0.00 0.00 65 1017.6
20260831220917 74 156 0.0 3.5 0.00 0.00 0.00 65 1017.6
20260831215439 75 177 0.0 4.3 0.00 0.00 0.00 65 1017.5
20260831214439 75 200 0.0 3.5 0.00 0.00 0.00 65 1017.6
20260831213438 75 170 0.0 4.3 0.00 0.00 0.00 65 1017.6
20260831212917 75 205 0.0 3.5 0.00 0.00 0.00 64 1017.7
20260831211428 75 110 0.0 0.9 0.00 0.00 0.00 64 1017.7
20260831210427 75 145 0.0 2.6 0.00 0.00 0.00 64 1017.7
20260831205428 76 192 0.9 4.3 0.00 0.00 0.00 64 1017.8
20260831204427 76 133 0.0 4.3 0.00 0.00 0.00 62 1017.9
20260831203428 76 203 0.0 4.3 0.00 0.00 0.00 62 1017.9
20260831202426 76 194 0.0 3.5 0.00 0.00 0.00 61 1017.8
20260831201423 76 178 0.0 4.3 0.00 0.00 0.00 59 1017.8
20260831200859 77 136 0.0 5.2 0.00 0.00 0.00 60 1017.8
20260831195423 77 163 0.9 4.3 0.00 0.00 0.00 57 1018.1
20260831194423 77 178 0.9 5.2 0.00 0.00 0.00 58 1018.2
20260831193423 76 175 0.9 4.3 0.00 0.00 0.00 56 1018.2
20260831192424 76 224 0.0 3.5 0.00 0.00 0.00 56 1018.2
20260831191422 76 218 0.0 2.6 0.00 0.00 0.00 60 1018.5
20260831190414 77 177 0.0 5.2 0.00 0.00 0.00 57 1018.5
20260831185413 77 7 0.0 0.9 0.00 0.00 0.00 57 1018.4
20260831184411 78 196 0.0 2.6 0.00 0.00 0.00 57 1018.6
20260831183902 78 184 0.9 7.0 0.00 0.00 0.00 54 1018.6
20260831182412 79 200 0.0 0.0 0.00 0.00 0.00 55 1018.8
20260831181411 79 200 0.0 0.9 0.00 0.00 0.00 51 1018.8
20260831180409 80 225 0.0 0.0 0.00 0.00 0.00 54 1018.8
20260831175409 80 187 0.0 2.6 0.00 0.00 0.00 51 1018.7
20260831174409 79 127 0.0 0.0 0.00 0.00 0.00 51 1019.1
20260831173410 79 100 0.0 0.0 0.00 0.00 0.00 51 1019.1
20260831172412 78 79 0.0 0.0 0.00 0.00 0.00 53 1019.3
20260831171410 77 183 0.0 0.0 0.00 0.00 0.00 50 1019.4
20260831170403 77 161 0.0 2.6 0.00 0.00 0.00 52 1019.4
20260831165401 77 6 0.0 0.0 0.00 0.00 0.00 54 1019.6
20260831164401 76 166 0.0 0.0 0.00 0.00 0.00 57 1019.7
20260831163401 76 166 0.0 0.0 0.00 0.00 0.00 58 1019.7
20260831162359 76 169 0.0 2.6 0.00 0.00 0.00 53 1019.8
20260831161844 76 163 0.9 3.5 0.00 0.00 0.00 57 1019.9
20260831160832 76 151 0.9 5.2 0.00 0.00 0.00 55 1019.9
20260831155359 76 177 0.9 3.5 0.00 0.00 0.00 57 1020.1
20260831154400 76 173 0.0 0.0 0.00 0.00 0.00 58 1020.1
20260831153359 76 129 0.0 0.0 0.00 0.00 0.00 59 1020.1
20260831152402 75 62 0.0 0.9 0.00 0.00 0.00 59 1020.2
20260831151357 75 111 0.0 0.0 0.00 0.00 0.00 61 1020.3
20260831150839 74 85 0.0 0.0 0.00 0.00 0.00 62 1020.3
20260831145357 74 102 0.0 0.0 0.00 0.00 0.00 62 1020.3
20260831144356 73 64 0.9 1.7 0.00 0.00 0.00 66 1020.3
20260831143845 72 135 0.0 2.6 0.00 0.00 0.00 62 1020.3
20260831143313 71 143 0.0 0.0 0.00 0.00 0.00 64 1020.5
20260831141828 70 156 0.0 0.0 0.00 0.00 0.00 67 1020.3
20260831140352 69 158 0.0 0.0 0.00 0.00 0.00 69 1020.3
20260831135350 67 158 0.0 0.0 0.00 0.00 0.00 69 1020.3
20260831134351 66 157 0.0 0.0 0.00 0.00 0.00 72 1020.3
20260831133350 65 158 0.0 0.0 0.00 0.00 0.00 71 1020.3
20260831132352 65 156 0.0 0.0 0.00 0.00 0.00 74 1020.3
20260831131342 64 155 0.0 0.0 0.00 0.00 0.00 78 1020.2
20260831130340 62 165 0.0 0.0 0.00 0.00 0.00 84 1020.2
20260831125341 61 165 0.0 0.0 0.00 0.00 0.00 88 1020.2
20260831124341 60 165 0.0 0.0 0.00 0.00 0.00 91 1020.2
20260831123818 59 165 0.0 0.0 0.00 0.00 0.00 92 1020.2
20260831122339 59 165 0.0 0.0 0.00 0.00 0.00 92 1020.1
20260831121823 58 165 0.0 0.0 0.00 0.00 0.00 92 1019.8
20260831120338 58 164 0.0 0.0 0.00 0.00 0.00 92 1019.8
20260831115337 57 301 0.0 0.0 0.00 0.00 0.00 92 1019.8
20260831114336 57 301 0.0 0.0 0.00 0.00 0.00 91 1019.8
20260831113336 56 301 0.0 0.0 0.00 0.00 0.00 91 1019.8
20260831112818 56 301 0.0 0.0 0.00 0.00 0.00 90 1019.7